Regional Weather Roundup
Issued by NWS

Home | Current Version | Previous Version | Graphics & Text | Print | Product List | Glossary On
Versions: 1 2 3 4 5 6 7 8 9 10 11 12 13 14 15 16 17 18 19 20 21 22 23 24 25 26 27 28 29 30 31 32 33 34 35 36 37 38 39 40 41 42 43 44 45 46 47 48 49 50
000
ASUS45 KBOI 310110
RWRID

IDAHO REGIONAL WEATHER ROUNDUP
NATIONAL WEATHER SERVICE BOISE ID
700 PM MDT SUN AUG 30 2015

NOTE: "FAIR" INDICATES FEW OR NO CLOUDS BELOW 12000 FEET
WITH NO SIGNIFICANT WEATHER AND/OR OBSTRUCTIONS TO VISIBILITY

IDZ012-014-310200-
SOUTHWEST IDAHO


CITY           SKY/WX    TMP DP  RH WIND       PRES   REMARKS
BOISE          SUNNY     78  36  21 NW9G20    29.95S
CALDWELL       SUNNY     79  39  24 NE8       29.95R
MOUNTAIN HOME  SUNNY     80  34  18 N17G24    29.92S
$$

IDZ016-017-310200-
SOUTHCENTRAL IDAHO


CITY           SKY/WX    TMP DP  RH WIND       PRES   REMARKS
BURLEY         SUNNY     74  33  22 W8        29.97S
JEROME         SUNNY     74  37  26 W8        29.98S
TWIN FALLS     SUNNY     78  29  16 NW6       29.98S
$$

IDZ019>023-310200-
SOUTHEAST IDAHO


CITY           SKY/WX    TMP DP  RH WIND       PRES   REMARKS
IDAHO FALLS    MOSUNNY   75  31  19 SW17      29.98R
POCATELLO      SUNNY     76  36  23 W15       29.98S
REXBURG        MOSUNNY   75  26  16 SW14      29.96S
$$

IDZ006-010-011-018-031-032-310200-
CENTRAL IDAHO MOUNTAINS


CITY           SKY/WX    TMP DP  RH WIND       PRES   REMARKS
MCCALL         CLOUDY    58  40  51 CALM      30.06R
HAILEY         SUNNY     72  25  17 SW9G26    30.04S
STANLEY          N/A     61  24  24 VRB6      30.10R
SALMON         PTSUNNY   73  27  17 W18G25    29.87R
CHALLIS        MOSUNNY   71  23  16 W20G26    29.96R
$$

IDZ002-004-006-007-026-310200-
NORTHERN IDAHO


CITY           SKY/WX    TMP DP  RH WIND       PRES   REMARKS
LEWISTON       PTSUNNY   73  42  32 NW9       29.97R
LOWELL           N/A     58  56  93 CALM      30.06R
COEUR D`ALENE  PTSUNNY   61  48  63 S13       29.93R
MULLAN PASS    CLOUDY    41  40  96 SW8       30.03R
$$



USA.gov is the U.S. government's official web portal to all federal, state and local government web resources and services.